P/2005 L1 ( McNaught ) 2021

Japanese version
Home page
Updated on March 19, 2021

---------------------------------------------------------------------

* Profile

* Orbital Elements

Epoch 2021 Nov. 2.0 TT = JDT 2459520.5                                          
T 2021 Nov. 2.85126 TT                                  Rudenko                 
q   3.1425930            (2000.0)            P               Q                  
n   0.12426038     Peri.  149.74456     +0.31194978     +0.94585799             
a   3.9772321      Node   138.24804     -0.89646044     +0.32428625             
e   0.2098542      Incl.    7.73852     -0.31471577     +0.01382326             
P   7.93                                                                        
From 241 observations 2005 May 16-Sept. 15, mean residual 0".5.                 

* Magnitudes Graph

        m1 = 14.0 + 5 log d + 10.0 log r

---------------------------------------------------------------------

The orbital elements are published on M.P.E.C. 2020-P19.
The magnitudes graphs are made with Comet for Windows.

---------------------------------------------------------------------

Copyright(C) Seiichi Yoshida (comet@aerith.net). All rights reserved.